N2GCT Weather Reports


time (UTC)temp
C
wind
direction
speed
KPH
gust
KPH
rain 1hr
cm
rain 24hr
cm
rain mn
cm
humidity
%
barometer
mb
20260506201542 11 233 1.6 8.0 0.00 1.32 1.24 90 1005.4
20260506201509 11 254 1.6 8.0 0.00 1.32 1.24 90 1005.8
20260506200044 12 32 0.0 6.4 0.00 1.32 1.24 89 1005.2
20260506200008 12 31 0.0 6.4 0.00 1.32 1.24 89 1005.6
20260506194551 14 306 1.6 8.0 0.00 1.32 1.24 86 1004.9
20260506194508 14 11 1.6 8.0 0.00 1.32 1.24 86 1005.3
20260506193043 16 0 0.0 9.7 0.03 1.32 1.24 90 1004.6
20260506193008 16 131 0.0 9.7 0.03 1.32 1.24 90 1005.1
20260506191551 16 123 1.6 6.4 0.03 1.32 1.24 92 1004.5
20260506191510 16 123 1.6 6.4 0.03 1.32 1.24 92 1005.0
20260506190042 16 144 1.6 8.0 0.05 1.32 1.24 93 1004.6
20260506190009 16 119 1.6 8.0 0.05 1.32 1.24 93 1005.2
20260506184551 16 134 1.6 9.7 0.05 1.32 1.24 94 1004.6
20260506184509 16 107 1.6 9.7 0.08 1.32 1.24 94 1005.1
20260506183053 15 0 1.6 6.4 0.08 1.30 1.22 95 1004.7
20260506183011 15 181 1.6 6.4 0.08 1.30 1.22 95 1005.3
20260506181558 15 121 1.6 3.2 0.10 1.30 1.22 96 1004.9
20260506181510 15 121 0.0 3.2 0.10 1.30 1.22 96 1005.5
20260506180104 15 0 0.0 0.0 0.10 1.27 1.19 96 1005.1
20260506180020 15 296 0.0 0.0 0.10 1.27 1.19 96 1005.6
20260506174540 15 0 0.0 0.0 0.15 1.27 1.19 96 1005.2
20260506174511 15 296 0.0 0.0 0.13 1.24 1.17 96 1005.7
20260506173052 14 0 0.0 0.0 0.20 1.22 1.14 96 1005.1
20260506173010 14 297 0.0 0.0 0.23 1.22 1.14 96 1005.6
20260506171539 14 0 0.0 0.0 0.28 1.19 1.12 96 1005.3
20260506171525 14 296 0.0 0.0 0.30 1.19 1.12 96 1005.7
20260506170039 13 0 0.0 0.0 0.33 1.17 1.09 96 1005.3
20260506170035 13 296 0.0 0.0 0.33 1.17 1.09 96 1005.8
20260506164542 13 0 0.0 0.0 0.33 1.12 1.04 96 1005.4
20260506164528 13 297 0.0 0.0 0.33 1.12 1.04 96 1005.7
20260506163041 13 0 0.0 0.0 0.23 0.99 0.91 96 1005.6
20260506163024 13 297 0.0 0.0 0.23 0.99 0.91 96 1005.9
20260506161542 13 0 0.0 0.0 0.18 0.91 0.84 95 1005.7
20260506161524 12 297 0.0 0.0 0.15 0.89 0.81 95 1005.9
20260506160040 12 0 0.0 0.0 0.13 0.84 0.76 95 1005.6
20260506160009 12 297 0.0 0.0 0.13 0.84 0.76 95 1005.9
20260506154540 12 0 0.0 0.0 0.13 0.79 0.71 95 1005.6
20260506154512 12 297 0.0 0.0 0.13 0.79 0.71 95 1006.0
20260506153043 12 0 0.0 0.0 0.15 0.76 0.69 95 1005.9
20260506153011 12 297 0.0 0.0 0.18 0.76 0.69 95 1006.2
20260506151545 12 0 0.0 0.0 0.20 0.74 0.66 96 1006.2
20260506151516 12 297 0.0 0.0 0.20 0.74 0.66 96 1006.6
20260506150044 12 0 0.0 3.2 0.25 0.71 0.64 96 1006.5
20260506150011 12 297 0.0 3.2 0.25 0.71 0.64 96 1006.7
20260506144558 11 297 0.0 3.2 0.25 0.66 0.58 96 1006.6
20260506144511 11 297 0.0 3.2 0.25 0.66 0.58 96 1006.8
20260506143044 11 297 0.0 3.2 0.20 0.58 0.51 96 1006.9
20260506143012 11 297 0.0 3.2 0.20 0.58 0.51 96 1007.3
20260506141542 11 0 0.0 3.2 0.15 0.53 0.46 96 1007.1
20260506141512 11 297 0.0 3.2 0.15 0.53 0.46 96 1007.4
20260506140042 11 0 0.0 0.0 0.10 0.46 0.38 96 1007.3
20260506140018 11 297 0.0 0.0 0.10 0.46 0.38 96 1007.6
20260506134542 11 0 0.0 3.2 0.08 0.41 0.33 96 1007.4
20260506134513 11 297 0.0 3.2 0.08 0.41 0.33 96 1007.7
20260506133053 11 0 0.0 0.0 0.08 0.38 0.30 96 1007.2
20260506133025 11 297 0.0 0.0 0.08 0.38 0.30 96 1007.4
20260506131544 11 0 0.0 3.2 0.13 0.38 0.30 96 1007.2
20260506131517 11 297 0.0 3.2 0.13 0.38 0.30 96 1007.4
20260506130044 11 0 0.0 1.6 0.15 0.36 0.28 96 1006.9
20260506130011 11 297 0.0 1.6 0.15 0.36 0.28 96 1007.1
20260506124542 11 0 0.0 3.2 0.15 0.33 0.25 96 1007.0
20260506124509 11 297 0.0 3.2 0.18 0.33 0.25 96 1007.3
20260506123040 11 296 0.0 0.0 0.18 0.30 0.23 96 1007.3
20260506123012 11 296 0.0 0.0 0.18 0.30 0.23 96 1007.7
20260506121538 11 263 0.0 1.6 0.15 0.25 0.18 96 1007.5
20260506121513 11 263 0.0 1.6 0.15 0.25 0.18 96 1007.9
20260506120051 11 0 0.0 0.0 0.10 0.20 0.13 95 1007.9
20260506120018 11 263 0.0 0.0 0.10 0.20 0.13 95 1008.3
20260506114542 11 0 0.0 0.0 0.08 0.18 0.10 96 1007.9
20260506114509 11 263 0.0 0.0 0.08 0.15 0.08 96 1008.3
20260506113041 11 0 0.0 0.0 0.05 0.13 0.05 96 1007.8
20260506113012 11 263 0.0 0.0 0.05 0.13 0.05 96 1008.2
20260506111538 11 0 0.0 1.6 0.03 0.10 0.03 96 1007.7
20260506111509 11 263 0.0 1.6 0.03 0.10 0.03 96 1008.1
20260506110048 11 0 0.0 0.0 0.03 0.10 0.03 95 1007.5
20260506110012 10 263 0.0 0.0 0.03 0.10 0.03 95 1007.8
20260506104548 10 0 0.0 1.6 0.00 0.08 0.00 95 1007.5
20260506104510 10 263 0.0 1.6 0.00 0.08 0.00 95 1007.7
20260506103049 10 263 0.0 3.2 0.00 0.08 0.00 96 1007.5
20260506103012 10 263 0.0 3.2 0.00 0.08 0.00 96 1007.8
20260506101542 10 0 0.0 0.0 0.00 0.08 0.00 96 1007.6
20260506101512 10 263 0.0 0.0 0.00 0.08 0.00 96 1007.8
20260506100040 10 0 0.0 3.2 0.00 0.08 0.00 96 1007.3
20260506100023 10 263 0.0 3.2 0.00 0.08 0.00 96 1007.5
20260506094544 10 0 0.0 3.2 0.00 0.15 0.00 95 1007.5
20260506094513 10 263 0.0 3.2 0.00 0.10 0.00 95 1007.7
20260506093045 10 0 0.0 0.0 0.00 0.15 0.00 95 1007.1
20260506093014 10 263 0.0 0.0 0.00 0.15 0.00 95 1007.5
20260506091550 10 0 0.0 3.2 0.00 0.15 0.00 95 1007.1
20260506091512 10 263 0.0 3.2 0.00 0.15 0.00 95 1007.4
20260506090041 10 0 0.0 0.0 0.00 0.15 0.00 95 1006.9
20260506090028 10 263 0.0 0.0 0.00 0.15 0.00 95 1007.3
20260506084539 10 0 0.0 0.0 0.00 0.15 0.00 95 1007.4
20260506084534 10 263 0.0 0.0 0.00 0.15 0.00 95 1007.9
20260506083038 10 0 0.0 0.0 0.00 0.15 0.00 95 1007.5
20260506083029 10 263 0.0 0.0 0.00 0.15 0.00 95 1008.1
20260506081544 10 0 0.0 0.0 0.00 0.15 0.00 95 1007.6
20260506081528 10 263 0.0 0.0 0.00 0.15 0.00 95 1007.9
20260506073059 11 263 0.0 3.2 0.00 0.15 0.00 95 1008.2
20260506073026 11 263 0.0 3.2 0.00 0.15 0.00 95 1008.6
20260506071545 11 0 0.0 0.0 0.00 0.15 0.00 95 1008.0
20260506071526 11 263 0.0 0.0 0.00 0.15 0.00 95 1008.6
20260506061548 11 0 0.0 0.0 0.00 0.15 0.00 94 1008.6
20260506061514 11 263 0.0 0.0 0.00 0.15 0.00 94 1009.1
20260506044551 11 0 0.0 0.0 0.03 0.15 0.00 91 1009.2
20260506044516 11 263 0.0 0.0 0.03 0.15 0.00 91 1009.7
20260506043043 12 0 0.0 3.2 0.03 0.15 0.00 90 1009.2
20260506043020 12 263 0.0 3.2 0.03 0.15 0.00 90 1009.6
20260506041554 12 263 0.0 3.2 0.08 0.15 0.00 89 1009.4
20260506041514 12 263 0.0 3.2 0.08 0.15 0.00 89 1009.7
20260506040051 12 0 0.0 3.2 0.08 0.15 0.00 88 1009.3
20260506040027 12 263 0.0 3.2 0.08 0.15 0.00 88 1009.7
20260506034553 13 263 1.6 3.2 0.05 0.13 0.13 86 1009.7
20260506034514 13 263 0.0 3.2 0.05 0.13 0.13 86 1010.3
20260506033038 13 360 1.6 6.4 0.05 0.13 0.13 78 1009.4
20260506033014 13 46 1.6 6.4 0.05 0.13 0.13 78 1009.8
20260506031541 14 63 1.6 8.0 0.00 0.08 0.08 74 1009.6
20260506031514 14 63 1.6 8.0 0.00 0.08 0.08 74 1010.0
20260506030058 15 344 1.6 8.0 0.00 0.08 0.08 75 1009.4
20260506030013 15 345 0.0 8.0 0.00 0.08 0.08 75 1009.8
20260506024545 15 0 1.6 8.0 0.00 0.08 0.08 74 1009.2
20260506024514 15 16 1.6 8.0 0.00 0.08 0.08 74 1009.6
20260506023039 16 36 1.6 8.0 0.00 0.08 0.08 76 1009.1
20260506023016 16 36 0.0 8.0 0.00 0.08 0.08 76 1009.5
20260506021555 16 39 1.6 4.8 0.00 0.08 0.08 81 1008.4
20260506021528 16 9 1.6 4.8 0.00 0.08 0.08 81 1009.0
20260506020044 16 206 0.0 3.2 0.00 0.08 0.08 80 1008.3
20260506020016 16 206 0.0 3.2 0.00 0.08 0.08 80 1008.9
20260506014550 16 0 0.0 3.2 0.00 0.08 0.08 81 1007.9
20260506014516 16 285 0.0 3.2 0.00 0.08 0.08 81 1008.6
20260506013045 16 120 1.6 3.2 0.00 0.08 0.08 80 1007.6
20260506013014 16 120 1.6 3.2 0.00 0.08 0.08 80 1008.3
20260506011609 16 0 0.0 3.2 0.00 0.08 0.08 80 1007.2
20260506011515 16 136 0.0 3.2 0.00 0.08 0.08 80 1007.9
20260506010044 17 242 0.0 3.2 0.00 0.08 0.08 78 1007.2
20260506010030 17 242 0.0 3.2 0.00 0.08 0.08 78 1007.9
20260506004550 17 84 0.0 4.8 0.00 0.08 0.08 78 1007.3
20260506004515 17 84 0.0 3.2 0.00 0.08 0.08 78 1007.9
20260506003042 17 207 1.6 3.2 0.00 0.08 0.08 75 1006.8
20260506003026 17 207 1.6 3.2 0.00 0.08 0.08 75 1007.6
20260506001546 17 319 1.6 6.4 0.00 0.08 0.08 73 1006.8
20260506001528 18 140 1.6 6.4 0.00 0.08 0.08 73 1007.5
20260506000046 18 130 3.2 12.9 0.00 0.08 0.08 71 1007.0
20260506000027 18 138 3.2 12.9 0.00 0.08 0.08 71 1007.4
20260505234547 17 220 0.0 6.4 0.00 0.08 0.08 72 1006.5
20260505234536 17 130 0.0 6.4 0.00 0.08 0.08 72 1007.0
20260505233041 17 137 1.6 4.8 0.00 0.08 0.08 72 1006.2
20260505233034 17 136 1.6 4.8 0.00 0.08 0.08 72 1006.9
20260505231543 18 173 1.6 4.8 0.00 0.08 0.08 69 1006.1
20260505231531 18 173 1.6 4.8 0.00 0.08 0.08 69 1006.8
20260505230057 19 269 1.6 11.3 0.00 0.08 0.08 67 1005.9
20260505230028 19 142 1.6 8.0 0.00 0.08 0.08 67 1006.5
20260505224549 19 86 3.2 14.5 0.00 0.08 0.08 66 1005.8
20260505224530 19 159 3.2 14.5 0.00 0.08 0.08 66 1006.2
20260505223044 18 163 3.2 8.0 0.00 0.08 0.08 70 1005.8
20260505223025 18 169 3.2 8.0 0.00 0.08 0.08 70 1006.3
20260505221546 18 117 1.6 24.1 0.00 0.08 0.08 70 1006.0
20260505221528 18 118 3.2 24.1 0.00 0.08 0.08 70 1006.8
20260505220053 18 308 6.4 25.7 0.00 0.08 0.08 68 1005.9
20260505220015 18 360 8.0 25.7 0.00 0.08 0.08 68 1006.6
20260505214551 19 199 8.0 24.1 0.00 0.08 0.08 67 1006.6
20260505214525 19 217 9.7 24.1 0.00 0.08 0.08 67 1007.0
20260505213047 19 242 11.3 32.2 0.00 0.08 0.08 67 1006.5
20260505213017 19 271 11.3 32.2 0.00 0.08 0.08 67 1007.1
20260505211542 21 346 8.0 22.5 0.00 0.08 0.08 59 1005.7
20260505211516 21 274 9.7 22.5 0.00 0.08 0.08 59 1005.9
20260505210048 26 225 3.2 19.3 0.00 0.08 0.08 30 1004.6
20260505210019 26 311 1.6 19.3 0.00 0.08 0.08 30 1005.0
20260505204556 26 124 3.2 12.9 0.00 0.08 0.08 30 1003.6
20260505204516 26 252 3.2 11.3 0.00 0.08 0.08 30 1004.0
20260505203048 26 143 4.8 14.5 0.00 0.08 0.08 29 1003.3
20260505203026 26 144 6.4 14.5 0.00 0.08 0.08 29 1003.7